Regional Weather Roundup
Issued by NWS Mobile, AL

Home | Current Version | Previous Version | Text Only | Print | Product List | Glossary On
Versions: 1 2 3 4 5 6 7 8 9 10 11 12 13 14 15 16 17 18 19 20 21 22 23 24 25 26 27 28 29 30 31 32 33 34 35 36 37 38 39 40 41 42 43 44 45 46 47 48 49 50
000
ASUS44 KMOB 050616
RWRMOB
REGIONAL WEATHER ROUNDUP
NATIONAL WEATHER SERVICE MOBILE AL
100 AM CDT SUN JUL 05 2015

ALZ061>064-050700-
COASTAL ALABAMA


CITY           SKY/WX    TMP DP  RH WIND       PRES   REMARKS
MOBILE REG APT CLOUDY    73  72  96 CALM      30.10F FOG
6HR MIN TEMP:  72; 6HR MAX TEMP:  74; 6HR PCP:  0.01;

BROOKLEY FIELD CLOUDY    74  73  97 CALM      30.11S FOG
6HR MIN TEMP:  73; 6HR MAX TEMP:  75; 6HR PCP:  0.02;

GULF SHORES    MOCLDY    74  73  95 CALM      30.09F
6HR MIN TEMP:  72; 6HR MAX TEMP:  84;


$$

ALZ051>060-050700-
INTERIOR SOUTHWEST AND SOUTH CENTRAL ALABAMA


CITY           SKY/WX    TMP DP  RH WIND       PRES   REMARKS
ANDALUSIA/OPP  MOCLDY    74  69  85 CALM      30.11S
6HR MIN TEMP:  73; 6HR MAX TEMP:  74; 6HR PCP:  0.04;

EVERGREEN      CLOUDY    71  69  93 CALM      30.12S
6HR MIN TEMP:  71; 6HR MAX TEMP:  73;

FLORALA        CLOUDY    71  68  90 CALM      30.12S
6HR MIN TEMP:  70; 6HR MAX TEMP:  73; 6HR PCP: TRACE;

GREENVILLE     FAIR      70  68  93 CALM      30.11S
6HR MIN TEMP:  70; 6HR MAX TEMP:  72; 6HR PCP: TRACE;


$$

FLZ001>006-050700-
WESTERN FLORIDA PANHANDLE


CITY           SKY/WX    TMP DP  RH WIND       PRES   REMARKS
CRESTVIEW      MOCLDY    71  70  96 CALM      30.11F
6HR MIN TEMP:  70; 6HR MAX TEMP:  79; 6HR PCP:  0.22;

DESTIN         PTCLDY    76  72  87 CALM      30.09F
6HR MIN TEMP:  76; 6HR MAX TEMP:  85; 6HR PCP: TRACE;

DUKE FIELD     FAIR      72  69  91 N2        30.09F
6HR MIN TEMP:  70; 6HR MAX TEMP:  81; 6HR PCP:  0.12;

MARY ESTHER    CLOUDY    73  69  87 NW2       30.08F
6HR MIN TEMP:  73; 6HR MAX TEMP:  85; 6HR PCP: TRACE;

MILTON         MOCLDY    74  70  87 CALM      30.10F
6HR MIN TEMP:  74; 6HR MAX TEMP:  80; 6HR PCP: TRACE;

PENSACOLA      MOCLDY    75  72  90 NE5       30.09F
6HR MIN TEMP:  73; 6HR MAX TEMP:  85; 6HR PCP:  0.08;

NAS PENSACOLA  MOCLDY    76  71  85 CALM      30.08F HAZE
6HR MIN TEMP:  74; 6HR MAX TEMP:  84; 6HR PCP: TRACE;

VALPARAISO     PTCLDY    73  69  89 N1        30.09F
6HR MIN TEMP:  73; 6HR MAX TEMP:  86; 6HR PCP: TRACE;


$$

...MARINE OBSERVATIONS...

STATION/POSITION TIME  SKY/WX   TEMP    WIND        PRES    VSBY
                                AIR SEA DIR/SP/G
                 (UTC)          (F)     (DEG/KT/KT) (MB)    (MI)
PASCAGOULA       0500            79      90/  2/  2 1019.0S
PETIT BOIS ISL   0500            84     170/  4/  5 1019.5S
E DAUPHIN ISLAND 0600            81     170/  4/  5 1018.7S
MIDDLE BAY LIGHT 0500            78      90/ 10     1018.6F
USCG MOBILE BAY  0500            77 85  250/  2/  3 1018.3S
STATE DOCKS      0500            79 86              1019.2R
MEAHER PARK      0600            76     120/  2     1018.6F
FORT MORGAN      0500            79     130/  8/  9 1018.6F
12 S ORANGE BCH  0550            82 83  190/  6/  6 1018.1F
WVE H/P(F/S)=  1/ 3

PENSACOLA BAY    0500            81 86   90/  2/  4 1019.5F
64 S DAUPHIN ISL 0550            83 86  150/ 10/ 14 1018.9F
WVE H/P(F/S)=  2/ 5

67 S FORT MORGAN 0530                   150/ 10       N/A
115 SE PENSACOLA 0550            84 85  150/ 10/ 12 1019.0F
WVE H/P(F/S)=  2/ 6

MID GULF/42001   0550            84 86  100/ 10/ 12 1019.3F
WVE H/P(F/S)=  2/ 6

EAST GULF/42003  0550            85 86  100/  8/ 10 1019.1F
WVE H/P(F/S)=  3/ 9


$$

...NEARBY LOCATIONS

CITY           SKY/WX    TMP DP  RH WIND       PRES   REMARKS
GULFPORT       CLOUDY    77  73  87 CALM      30.08F
6HR MIN TEMP:  76; 6HR MAX TEMP:  80;

BILOXI         CLOUDY    76  73  90 E3        30.08F
6HR MIN TEMP:  76; 6HR MAX TEMP:  78;

PASCAGOULA     CLOUDY    73  72  96 CALM      30.09F
6HR MIN TEMP:  73; 6HR MAX TEMP:  74; 6HR PCP: TRACE;

HATTIESBURG    CLOUDY    74  70  87 CALM      30.09S
6HR MIN TEMP:  73; 6HR MAX TEMP:  76; 6HR PCP: TRACE;

LAUREL         CLOUDY    72  70  94 S3        30.10S
6HR MIN TEMP:  70; 6HR MAX TEMP:  72; 6HR PCP:  0.01;

MERIDIAN       CLOUDY    70  69  97 SE7       30.09R
6HR MIN TEMP:  70; 6HR MAX TEMP:  73;

MERIDIAN NAS   CLOUDY    71  69  93 CALM      30.09R
6HR MIN TEMP:  71; 6HR MAX TEMP:  73;

MONTGOMERY     MOCLDY    72  69  90 S5        30.10S
6HR MIN TEMP:  72; 6HR MAX TEMP:  73; 6HR PCP: TRACE;

MAXWELL AFB    MOCLDY    71  70  95 S6        30.09S
6HR MIN TEMP:  71; 6HR MAX TEMP:  73; 6HR PCP:  0.01;

TROY           CLOUDY    70  69  97 SW3       30.11F
6HR MIN TEMP:  70; 6HR MAX TEMP:  72; 6HR PCP:  0.04;

FORT RUCKER    MOCLDY    70  68  93 CALM      30.10F
6HR MIN TEMP:  70; 6HR MAX TEMP:  84; 6HR PCP:  0.14;

DALEVILLE      MOCLDY    70  69  99 S3        30.10F
6HR MIN TEMP:  69; 6HR MAX TEMP:  80; 6HR PCP:  0.38;

DOTHAN         MOCLDY    70  69  97 S6          N/A  FOG
6HR MIN TEMP:  69; 6HR MAX TEMP:  78; 6HR PCP:  0.32;


$$

...OTHER SURROUNDING LOCATIONS...

CITY           SKY/WX    TMP DP  RH WIND       PRES   REMARKS
BIRMINGHAM     CLOUDY    71  68  90 S9        30.10S
6HR MIN TEMP:  71; 6HR MAX TEMP:  75;

TUSCALOOSA     CLOUDY    71  69  93 S7        30.08S
6HR MIN TEMP:  71; 6HR MAX TEMP:  72;

COLUMBUS GA    CLOUDY    69  68  96 W3        30.10S
6HR MIN TEMP:  69; 6HR MAX TEMP:  79; 6HR PCP:  0.18;

PANAMA CITY    NOT AVBL
TALLAHASSEE    CLEAR     74  71  91 SE3       30.10F
6HR MIN TEMP:  74; 6HR MAX TEMP:  77;

BATON ROUGE    CLOUDY    74  72  93 CALM      30.06S FOG
6HR MIN TEMP:  74; 6HR MAX TEMP:  75; 6HR PCP: TRACE;

NEW ORLEANS    MOCLDY    79  72  79 SE5       30.07F
6HR MIN TEMP:  76; 6HR MAX TEMP:  82;

SLIDELL        MOCLDY    73  72  96 CALM      30.07F
6HR MIN TEMP:  73; 6HR MAX TEMP:  78;

JACKSON        MOCLDY    72  69  90 SE3       30.07R
6HR MIN TEMP:  71; 6HR MAX TEMP:  78; 6HR PCP: TRACE;

MCCOMB         CLOUDY    71  71 100 SE5       30.07S
6HR MIN TEMP:  71; 6HR MAX TEMP:  72; 6HR PCP: TRACE;


$$

...SURROUNDING MARINE OBSERVATIONS...

STATION/POSITION TIME  SKY/WX   TEMP    WIND        PRES    VSBY
                                AIR SEA DIR/SP/G
                 (UTC)          (F)     (DEG/KT/KT) (MB)    (MI)
WAVELAND         0500            79 84  330/  1/  3 1019.2R
PASCAGOULA RGN A 0500            77      CALM  /  2 1018.6S
PASCAGOULA PORT  0500               86                N/A
GRAND ISLE       0500            84 87  200/  2/  5 1018.9R
SOUTHWEST PASS   0600            84     180/  8/  9 1019.1F
PILOT STATION E  0500            84 83  170/  5/  6 1019.5R
SHELL BEACH      0500            81 85  140/  4/  5 1018.2S
PANAMA CITY      0500            79 86   70/  2/  5 1018.8F
APALACHICOLA     0500            81 86  260/  2/  3 1019.6F
TYNDALL TOWER C  0600            82     190/  6/  7 1018.9F
S APLCHCLA/42036 0550            85 86  310/  2/  2 1019.9F
WVE H/P(F/S)=  1/ 4


$$




USA.gov is the U.S. government's official web portal to all federal, state and local government web resources and services.